Weather in Semibalki

Russia / Rostov Oblast     47°00′18″N   39°02′38″E
temp.,
°C
wind,
m/s
gust,
m/s
humid.,
%
clouds,
%
prec.,
mm/h
press.,
hPa
HPBL,
m
6 may, thu
thu600:00+12ese44605 0.0 101690
03:00+11ese476490 0.0 1016142
06:00+10ese5969100 0.0 1015225
09:00+15ese6959100 0.0 1014542
12:00+18se565194 0.0 1013683
15:00+19se3451100 0.0 1013787
18:00+19sse2359100 0.0 101257
21:00+15ssw3369100 0.0 101328
7 may, fri
fri700:00+14w46797 0.0 1013119
03:00+13w347259 0.0 1014113
06:00+13w2269100 0.0 1015102
09:00+16w225896 0.0 1016303
12:00+17w33595 0.0 1017498
15:00+18w555976 0.0 1017722
18:00+17w45675 0.0 1016259
21:00+15sw337016 0.0 101733
8 may, sat
sat800:00+14ssw3469100 0.0 101685
03:00+13s346864 0.0 101597
06:00+12s3581100 0.0 1015122
09:00+16s4668100 0.0 1015302
12:00+19s4660100 0.0 1013556
15:00+21ssw455561 0.0 1012727
18:00+19w23660 0.0 1011228
21:00+16nw237073 0.0 101120
9 may, sun
sun900:00+15nnw336946 0.1 100929
03:00+14n7983100 1.6 1009344
06:00+12ne121494100 6.1 1007514
09:00+8n151891100 16.9 1008764
12:00+7nnw141890100 2.6 1012979
15:00+7nnw142093100 5.3 10161416
18:00+10nw121873100 2.1 10191711
21:00+10nw71273100 2.4 1021972
10 may, mon
mon1000:00+11wnw101370100 0.6 10191012
03:00+10wnw111373100 1.1 1019937
06:00+8nw121484100 0.7 10181175
09:00+6wnw101196100 2.3 1017878
12:00+8wnw6890100 3.2 1015743
15:00+10nnw5588100 4.6 1015592
18:00+10nne3385100 0.5 1015356
21:00+10e5589100 0.8 1017444